Regional Weather Roundup
Issued by NWS

Home | Current Version | Previous Version | Graphics & Text | Print | Product List | Glossary On
Versions: 1 2 3 4 5 6 7 8 9 10 11 12 13 14 15 16 17 18 19 20 21 22 23 24 25 26 27 28 29 30 31 32 33 34 35 36 37 38 39 40 41 42 43 44 45 46 47 48 49 50
065
ASUS43 KMKX 271911
RWRWI

WISCONSIN REGIONAL WEATHER ROUNDUP
NATIONAL WEATHER SERVICE MILWAUKEE/SULLIVAN WI
200 PM CDT SUN MAY 27 2018

NOTE: "FAIR" INDICATES FEW OR NO CLOUDS BELOW 12,000 FEET WITH NO
SIGNIFICANT WEATHER AND/OR OBSTRUCTIONS TO VISIBILITY.

WIZ001-002-006>008-014>016-023>028-272000-
NORTHWEST WISCONSIN

CITY           SKY/WX    TMP DP  RH WIND       PRES   REMARKS
SUPERIOR ARPT  NOT AVBL
ASHLAND        FAIR      83  60  45 NW5       29.86F HX  83
HAYWARD        FAIR      86  59  39 VRB7      29.90R HX  85
SIREN          LGT RAIN  78  54  43 SW20G31   29.85F
CUMBERLAND     FAIR      84  50  30 NW18G24   29.93R HX  82
RICE LAKE      FAIR      91  48  23 NW10G16   29.91S HX  88
CHETEK         FAIR      91  55  29 N3        29.89R HX  89
LADYSMITH      FAIR      90  55  30 NW8       29.91S HX  88
EAU CLAIRE     FAIR      94  57  28 N10       29.86F HX  92
MENOMONIE      FAIR      88  60  38 NW6       29.87F HX  87
NEW RICHMOND   FAIR      86  51  30 CALM      29.92R HX  84
OSCEOLA        FAIR      83  55  37 NE16      29.91S HX  82
$$

WIZ003>005-009-010-017-018-272000-
NORTH CENTRAL WISCONSIN

CITY           SKY/WX    TMP DP  RH WIND       PRES   REMARKS
MANITOWISH WTR FAIR      83  56  38 NW15      29.91S HX  82
ARBOR VITAE    FAIR      85  54  34 NW7G16    29.91S HX  84
WOODRUFF       FAIR      85  54  34 NW7G16    29.91S HX  84
RHINELANDER    FAIR      92  52  25 W13G20    29.91S HX  89
EAGLE RIVER    FAIR      87  47  24 W16G22    29.90R HX  84
LAND O LAKES   FAIR      86  48  26 NW8G17    29.92S HX  83
PHILLIPS       FAIR      86  56  36 W8        29.90S HX  85
TOMAHAWK       FAIR      88  50  27 W8        29.90F HX  85
MEDFORD        FAIR      88  52  28 NW10      29.91S HX  86
MERRILL        FAIR      89  53  29 NW12      29.89F HX  87
$$

WIZ029-030-035-036-043>047-272000-
CENTRAL WISCONSIN

CITY           SKY/WX    TMP DP  RH WIND       PRES   REMARKS
WAUSAU         FAIR      91  49  23 NW12G17   29.87S HX  88
MOSINEE        PTSUNNY   88  52  29 NW8G20    29.90F HX  85
MARSHFIELD     FAIR      91  54  28 NW12      29.89S HX  89
STEVENS POINT  FAIR      91  55  29 NW6       29.89S HX  89
WAUPACA        FAIR      97  45  17 NW14G21   29.86S HX  93
WAUTOMA        FAIR      95  49  20 W9G20     29.86S HX  92
WISC RAPIDS    FAIR      95  49  20 NW9G21    29.89S HX  92
CAMP DOUGLAS   PTSUNNY   92  57  30 W6        29.87F HX  91
$$

WIZ011>013-019>022-031-037>040-048>050-272000-
NORTHEAST WISCONSIN

CITY           SKY/WX    TMP DP  RH WIND       PRES   REMARKS
ANTIGO         FAIR      88  54  31 NW13G21   29.90S HX  86
SHAWANO        FAIR      94  51  23 W6G18     29.85S HX  91
OCONTO         FAIR      83  59  44 SE9       29.85F HX  83
STURGEON BAY   FAIR      84  64  50 E9        29.87F HX  85
GREEN BAY      FAIR      92  62  36 NE8       29.84F HX  92
MANITOWOC      NOT AVBL
APPLETON       MOSUNNY   91  46  21 NW8       29.85F HX  88
CLINTONVILLE   FAIR      94  46  19 NW13      29.85F HX  90
OSHKOSH        FAIR      91  66  43 E9        29.85F HX  93
$$

WIZ032>034-041-042-053>061-272000-
SOUTHWEST WISCONSIN

CITY           SKY/WX    TMP DP  RH WIND       PRES   REMARKS
LA CROSSE      FAIR      96  66  37 VRB3      29.85F HX  99
SPARTA         FAIR      94  50  22 NW8       29.88S HX  91
VIROQUA        FAIR      91  56  30 N8        29.90S HX  89
BOSCOBEL       FAIR      96  69  41 NW7       29.85F HX 102
PRAIRIE DU CHI FAIR      91  63  38 NW8       29.85S HX  92
PLATTEVILLE    FAIR      91  67  45 W3        29.88S HX  94
$$

WIZ056-057-062-063-064-067-068-272000-
SOUTH CENTRAL WISCONSIN

CITY           SKY/WX    TMP DP  RH WIND       PRES   REMARKS
REEDSBURG      FAIR      93  60  33 W7        29.87S HX  93
BARABOO/DELLS  PTSUNNY   95  52  23 NW5       29.87S HX  92
LONE ROCK      FAIR      95  65  37 W9        29.85S HX  97
MINERAL POINT  FAIR      93  63  36 SW3       29.89S HX  94
MADISON        PTSUNNY   93  66  40 VRB7      29.85F HX  96
MIDDLETON      FAIR      95  62  34 W7        29.87F HX  96
WATERTOWN      FAIR      92  64  38 SW5       29.86F HX  93
MONROE         FAIR      91  61  35 SW10G17   29.88F HX  91
JANESVILLE     MOSUNNY   91  61  35 CALM      29.87F HX  91
$$

WIZ051-052-058>065-066-070>072-272000-
SOUTHEAST WISCONSIN

CITY           SKY/WX    TMP DP  RH WIND       PRES   REMARKS
MILWAUKEE      FAIR      94  63  35 VRB6      29.85F HX  95
WAUKESHA       SUNNY     90  59  35 SW10      29.89F HX  89
MILWAUKEE/TIMM SUNNY     93  54  26 SW9       29.87F HX  91
RACINE         FAIR      88  61  40 SE12      29.89S HX  88
BURLINGTON     FAIR      93  52  24 N3        29.87F HX  90
KENOSHA        FAIR      93  58  30 W6        29.87F HX  92
FOND DU LAC    FAIR      93  62  35 VRB7G17   29.85F HX  93
SHEBOYGAN      FAIR      93  60  33 NW14      29.85S HX  93
WEST BEND      FAIR      91  59  33 W12       29.86F HX  90
JUNEAU         PTSUNNY   91  64  40 SW9       29.87F HX  92
$$

LSZ147-162-272000-
LAKE SUPERIOR

STATION/POSITION TIME  TEMP    WIND        PRES    WAVE
                       AIR SEA DIR/SP/G            HT/PER
                 (UTC) (F)     (DEG/KT/KT) (MB)    (FT/S)
W MID LAKE BUOY  1850   39 37  140/  4/  6 1011.8F   0
DEVILS ISLAND    1900   65     130/  4/  5 1010.4F
SAXON HARBOR     1830   63      10/  1/  3 1011.2S
$$

LMZ867-665-643>646-272000-
LAKE MICHIGAN

STATION/POSITION TIME  TEMP    WIND        PRES    WAVE
                       AIR SEA DIR/SP/G            HT/PER
                 (UTC) (F)     (DEG/KT/KT) (MB)    (FT/S)
N MID LAKE BUOY  1850   41 38  170/  6/  8 1011.3F   1
NORTHPORT PIER   1840   61     140/  3/  3 1011.2F
KEWAUNEE LAKESHO 1842   68      90/  2/  4 1011.2R
SHEBOYGAN LAKESH 1900   63     170/ 16/ 17 1010.5R
PORT WASHINGTON  1830   68     170/  6/  9 1012.2S
ATWATER BUOY     1807   64 56  170/  8/ 10 1011.7    1
MILWAUKEE LAKESH 1850   68     140/ 14/ 15   N/A
S MID LAKE BUOY  1850   54 47  180/  4/  4 1012.7F   0
KENOSHA   LAKESH 1900   68                 1011.5
$$

TC  - TEMPERATURE IN CELSIUS
VSB - VISIBILITY IN STATUTE MILES
WCI - WIND CHILL INDEX
HX  - HEAT INDEX





USA.gov is the U.S. government's official web portal to all federal, state and local government web resources and services.